COSMOS 1897 DEB, 44572

Orbit data source: Space-Track

COSMOS 1897 DEB, 44572 is space debris in GEO originally from a launch on Thu, 26 Nov 1987 UTC launched from the Tyuratam Missile And Space Complex (TTMTR). Debris objects in space refer to the collection of defunct objects orbiting the Earth. Examples of debris include non-operational satellites, rocket bodies, and fragments generated from explosions, collisions, or faulty payload assembly.

Not visible in the next 10 days
Identifier
44572, 1987-096G
Orbit
GEO
Last TLE update
11 hours ago
Origin
Manufacturer
NPO PM
Mission
Spacecraft
Bus & Motor
Unknown
Mass
Unknown
Launch date (UTC)
1987-11-26 (37 years ago)
Launch vehicle
Unknown
Launch site
Tyuratam Missile And Space Complex (TTMTR)
Object type
Payload
Rocket body
Debris
Shape & HBR
Unknown
Radar Cross Section
Large (>1 m²)

Expand to show TLE details & history

TLE from 11 hours ago
0 COSMOS 1897 DEB
1 44572U 87096G   25128.81186182  .00000038  00000-0  00000-0 0  9996
2 44572  11.4330 328.9926 0017698 283.4376 272.9831  1.00455830 66920
Epoch: 2025-05-08T19:29Z
Definitive object data (Epoch: 2025-05-08T19:29:04.861Z)
Latitude
-3.19478°
Longitude
5.77142°
Altitude
35,730.967 km
Speed
3.077 km/s
True Right ascension
10h 59m 40s
True Declination
-3° 11' 30"
Sunlit
Object was in daylight at TLE epoch
Visualization TLE readout
Latitude
0.41372°
Longitude
171.80386°
Altitude
35,719.925 km
Speed
3.078 km/s
Apparent Right ascension
22h 27m 26s
Apparent Declination
-4° 52' 35"
Sunlit
Object is in daylight
Visualization observer readout
Local Sidereal Time
14:36:24
Azimuth
75.222° E
Elevation
-24.236°
Doppler factor
1
Orbital elements
Apogee altitude
35,810.623 km
Perigee altitude
35,661.555 km
Semi-major axis
42,114.226 km
Eccentricity
0.0017698
Inclination
11.433°
RAAN
328.9926°
Arg. of periapsis
283.4376°
True anomaly
272.78055°
Mean anomaly
272.9831°
Eccentric anomaly
272.88183°
Mean motion
0.25113 °/min
BSTAR
Unknown
Orbital period
1433.52 mins
Loading historical data...
44572 neighbors
Loading maneuver chart data...
Loading SW <> Apogee altitude chart data...
Loading historical data...
Loading historical data...
Loading historical data...
Loading historical data...
Loading historical data...
Loading historical data...
Loading historical data...

COSMOS 1897 DEB Visibility forecast

Observer location: undefined°, undefined°

COSMOS 1897 DEB is not visible in the next 10 days
Span
Click to sort rows by Start time (UTC) header in descending order
Start Az.
Max El. time (UTC)
Max El. Az.
Max El.
End time (UTC)
End Az.
|